Dewpoint
30 18 15 15 18 22 26 27 25 25 21 26 25 19 17 16 17 17 16 18 29 17 16 16 15 16 12 17 19 26 28 20 20 24 31 33 35 37 41 41 40 40 40 41 45 46 46 47 46 46 46 47 48 47 46 45 44 45 47 49 48 48 50 51 51 50 50 48 47 48 48 49 49 52 52 52 52 53 54 55 56 56 57 57 57 57
28 17 20 22 24 26 29 33 33 32 31 26 24 20 16 17 18 16 22 31 29 19 12 26 12 20 24 27 30 31 25 20 20 24 29 31 34 35 38 40 40 40 39 42 45 46 47 45 46 46 46 48 46 46 45 43 44 45 47 48 48 49 50 50 51 51 50 48 48 48 48 48 50 50 49 49 50 51 54 54 54 54 53 54 55 58
19 16 21 26 30 32 37 37 34 30 28 28 20 20 18 19 17 20 29 35 32 24 18 25 18 22 28 31 30 31 27 26 26 22 24 31 32 34 36 40 40 39 39 42 44 46 46 46 46 46 46 46 45 46 44 43 43 45 47 47 48 49 50 50 52 51 49 49 48 48 47 50 49 48 50 49 52 54 52 52 52 52 51 51 52 54
17 19 26 30 34 31 32 35 32 29 30 26 21 19 18 21 18 17 27 33 32 26 21 24 20 27 31 33 34 33 30 29 34 33 30 29 30 32 34 38 40 39 39 41 44 44 46 45 46 46 45 45 46 46 44 44 43 45 48 47 48 49 50 50 52 53 49 48 48 49 49 49 48 46 53 50 50 50 51 50 51 51 50 51 52 53
13 18 31 36 35 31 30 32 27 22 21 29 26 21 20 22 21 18 21 30 33 29 31 23 23 21 29 21 22 27 30 30 29 28 28 34 31 32 35 36 41 39 39 40 43 45 45 45 45 45 45 45 46 46 44 44 43 45 46 47 49 49 51 50 54 52 50 49 49 51 50 50 47 47 47 48 48 49 53 50 49 49 51 51 51 53
17 22 29 28 34 34 29 27 29 27 20 26 30 26 26 27 25 27 30 24 23 20 27 22 14 21 26 26 28 27 29 27 30 26 22 22 29 31 31 31 37 42 40 40 43 44 45 44 44 45 45 44 45 45 44 44 44 44 46 48 49 50 51 51 52 50 49 48 48 49 48 45 45 45 45 45 47 48 49 48 48 50 50 51 50 51
17 27 29 27 28 32 31 28 30 29 23 19 24 31 29 27 28 28 25 22 16 14 22 28 15 15 22 23 24 25 25 24 25 26 25 25 25 30 30 30 34 39 39 41 43 44 44 44 44 45 44 44 44 44 45 45 45 45 46 48 49 50 51 51 50 50 49 46 48 48 47 45 45 45 46 45 45 49 48 48 48 48 49 50 50 51
27 24 29 31 30 29 27 25 29 27 22 18 28 32 30 28 27 29 27 22 20 27 28 29 21 14 15 20 23 24 23 21 22 22 25 25 24 26 29 29 32 38 39 40 42 43 44 44 44 44 44 44 43 45 45 45 46 46 47 48 50 50 52 51 49 49 47 45 47 47 47 48 47 47 47 45 46 47 51 47 48 49 49 50 51 50
20 22 28 28 27 24 23 26 31 29 22 22 30 29 25 24 27 29 25 23 23 18 15 20 27 15 18 20 24 26 20 20 20 21 20 21 22 24 27 29 30 36 38 40 42 43 43 44 44 44 44 44 44 45 45 45 46 47 47 49 50 50 51 50 49 48 47 47 47 47 48 49 49 48 47 48 50 48 50 46 48 49 49 48 50 51
24 22 24 30 25 22 25 28 31 28 21 28 30 29 25 28 30 26 21 18 17 10 11 17 23 12 12 20 22 23 19 19 19 19 20 21 22 22 25 28 30 33 37 39 41 42 43 44 44 44 44 44 44 45 46 45 48 48 48 49 50 49 50 49 49 48 46 48 49 48 48 48 48 48 47 48 48 47 47 46 47 48 48 48 49 48
19 34 37 24 22 24 26 29 31 26 26 31 25 19 18 22 22 25 23 22 19 5 11 19 24 15 9 15 17 16 19 22 21 20 19 19 20 22 25 26 28 32 36 38 41 43 43 44 44 44 44 44 44 45 45 45 47 49 49 49 50 49 49 49 49 47 46 48 48 48 48 48 47 46 47 47 47 47 46 47 46 46 47 49 49 49
17 14 25 24 31 22 24 20 21 22 22 21 22 18 16 17 17 17 18 18 6 6 14 19 22 19 9 11 18 22 25 25 22 18 19 20 19 20 25 26 26 31 35 37 40 42 43 44 45 45 45 44 44 45 45 46 48 49 49 49 49 49 49 48 48 47 46 48 49 48 49 48 47 46 46 46 47 47 47 47 47 47 47 49 50 49
14 10 14 15 35 19 15 16 14 14 18 16 21 19 15 13 11 5 10 4 4 9 11 19 22 16 13 13 19 18 18 18 21 20 21 20 20 23 25 28 24 27 33 37 39 42 43 43 44 45 45 45 45 44 45 46 47 48 49 49 49 49 48 48 48 47 46 48 48 49 49 49 47 46 46 45 46 47 47 46 46 46 47 48 49 48
11 20 19 16 13 23 15 17 12 9 10 12 12 16 13 7 2 1 5 8 10 14 20 18 23 15 18 18 23 21 22 23 23 25 24 25 26 26 25 24 23 25 26 36 38 41 42 43 44 45 46 45 45 44 45 46 47 48 49 50 48 48 48 48 48 46 46 47 48 49 49 49 49 46 46 45 45 46 47 47 47 48 49 48 49 48
7 9 14 16 15 22 14 14 16 16 15 10 13 12 14 14 7 2 7 1 4 8 18 24 13 14 11 15 23 25 26 26 27 26 28 29 27 27 27 26 25 25 27 30 37 39 42 43 44 45 46 46 46 45 45 46 47 47 49 50 49 49 48 48 47 47 46 47 48 48 48 48 49 46 46 45 47 46 47 48 47 48 47 48 49 49
6 10 16 19 16 14 10 12 12 10 9 16 18 12 11 11 18 7 13 12 13 11 9 12 13 18 20 21 26 26 27 27 29 28 28 26 26 26 26 27 27 28 32 32 34 39 42 43 44 45 46 47 47 46 46 46 47 47 48 50 50 49 48 47 48 46 46 46 48 49 48 47 49 49 47 46 48 47 46 48 47 47 47 48 48 47
9 11 16 16 13 14 14 16 11 6 9 17 8 13 14 18 18 13 16 20 13 15 6 12 17 16 21 15 20 24 24 25 26 26 27 27 26 25 26 26 25 27 28 31 35 37 41 43 44 46 46 47 47 47 47 46 47 47 47 49 50 50 49 47 47 46 46 47 49 49 48 47 47 48 47 46 46 47 46 48 47 47 47 47 47 48
14 14 23 12 11 14 17 14 13 14 13 14 11 13 18 24 24 14 6 12 6 4 9 13 12 14 12 12 20 22 22 24 25 25 24 26 26 25 26 26 26 24 26 29 32 36 41 42 43 45 46 47 48 48 48 47 47 48 48 48 49 50 50 48 47 47 46 46 49 49 48 48 47 47 46 46 46 47 46 47 47 46 46 46 48 49
18 10 14 16 14 13 17 13 13 16 17 13 15 22 16 15 12 22 17 4 3 3 3 12 14 14 13 15 19 21 22 23 24 25 24 24 25 26 26 25 24 26 27 27 30 30 35 40 43 43 44 45 46 48 49 50 49 49 49 48 49 50 50 49 48 47 47 47 48 49 48 47 48 47 47 47 47 47 47 46 47 47 47 46 48 50
25 11 16 20 16 17 17 14 14 21 20 20 17 16 18 17 18 11 14 17 13 3 2 10 11 9 16 16 20 21 24 25 24 23 23 25 27 28 27 25 24 26 27 27 28 30 30 35 43 43 44 44 45 46 48 49 50 49 49 49 49 50 50 50 49 48 47 47 48 49 49 48 48 48 47 47 47 47 47 46 47 47 46 47 49 48
16 20 9 17 19 17 12 18 18 16 17 20 18 17 17 21 21 12 17 11 9 3 3 4 2 10 16 22 22 22 24 25 23 24 25 25 26 27 28 27 26 25 27 28 29 29 30 32 33 41 43 43 45 47 48 49 49 49 49 50 50 49 50 51 50 48 47 47 47 48 48 48 49 48 48 47 48 47 47 47 47 47 47 48 47 47
18 17 13 22 16 15 16 19 16 16 18 20 20 16 10 12 11 8 12 18 16 10 6 2 8 16 20 32 27 23 25 26 24 23 24 24 24 25 26 26 25 25 26 28 28 30 32 33 34 35 39 42 45 46 46 49 50 50 49 50 50 50 50 51 51 50 49 48 47 47 48 48 48 48 48 47 47 47 46 46 47 47 48 46 46 46
24 23 21 14 18 17 17 18 20 19 18 22 15 13 15 18 16 11 6 13 16 15 16 16 8 16 24 31 29 28 27 25 25 24 23 24 25 24 25 25 26 26 25 27 29 32 34 35 35 35 37 40 43 45 46 48 49 50 50 50 50 50 50 51 51 50 50 49 48 47 47 48 48 48 47 47 47 46 46 46 46 47 46 46 45 45
47 16 17 18 20 21 18 18 22 22 15 13 16 23 18 11 15 16 17 19 12 14 15 11 9 16 24 31 31 29 29 29 27 24 22 25 26 25 25 25 26 28 29 30 31 34 35 36 36 36 36 37 40 42 44 46 48 50 51 51 50 51 51 52 52 51 51 50 49 48 47 47 48 47 47 47 46 46 46 46 46 47 46 45 45 45
13 21 19 12 9 13 14 16 16 19 20 17 13 16 16 17 16 20 20 20 11 18 16 13 10 10 24 32 26 23 22 21 22 22 28 23 26 27 27 28 29 30 31 32 33 34 35 36 37 37 37 38 38 39 41 43 46 49 51 51 51 51 52 52 52 51 51 50 50 49 48 46 46 47 46 46 46 46 46 46 46 46 45 45 45 44
16 21 17 10 6 2 -0 -0 5 9 14 19 18 16 13 10 15 16 7 14 6 15 17 12 9 17 23 25 22 22 21 21 22 24 27 27 27 29 30 31 32 32 33 33 35 35 36 37 37 37 38 38 39 39 40 42 44 45 48 51 52 51 51 52 52 51 51 51 50 49 48 47 46 46 45 46 46 46 46 46 46 45 45 45 44 43
19 24 20 18 14 11 12 10 16 22 17 14 18 15 15 19 20 16 16 8 9 13 12 16 16 14 13 18 19 20 22 22 24 26 27 28 29 30 30 31 32 35 35 35 38 36 36 36 37 37 38 38 38 39 39 40 43 45 46 48 50 52 52 52 52 52 52 51 51 50 49 48 48 48 45 46 46 46 46 46 45 45 45 45 44 44
21 14 20 21 19 15 14 15 18 20 15 17 16 17 16 18 19 16 9 12 17 12 9 18 21 15 16 17 19 21 23 25 26 27 29 30 30 30 30 33 37 35 35 36 36 36 36 37 37 38 38 39 39 39 39 40 40 42 46 47 48 49 50 52 51 52 52 51 51 50 50 49 49 47 46 46 46 46 46 46 45 45 45 45 44 43
19 12 18 20 18 20 19 17 18 18 16 16 15 17 15 18 18 14 13 18 18 11 11 16 20 15 16 18 20 22 24 25 27 28 29 30 31 31 31 33 34 35 35 35 36 36 37 36 37 38 39 39 40 40 40 40 41 41 42 44 47 49 49 51 51 52 51 51 51 50 50 49 48 47 47 47 46 46 46 45 45 45 45 44 44 44
18 15 21 20 17 16 15 17 20 18 16 14 17 16 16 18 18 18 18 19 19 16 16 17 18 16 18 20 23 26 27 28 29 31 31 31 32 33 33 34 34 34 34 34 35 35 36 37 37 38 39 39 40 40 41 41 41 41 42 42 44 46 49 50 51 52 51 51 51 50 49 49 48 47 48 47 46 46 46 45 45 45 44 43 43 42
21 17 26 20 14 14 16 20 16 16 17 16 15 15 17 18 17 19 19 19 21 18 18 18 14 14 20 23 25 29 32 32 32 31 32 32 32 33 33 33 33 33 33 34 34 35 36 37 37 37 38 39 40 40 40 41 41 41 41 42 43 43 46 49 50 51 51 51 50 49 49 48 48 47 47 47 47 47 46 45 45 44 44 42 41 41
20 17 22 19 13 15 16 15 14 16 16 15 15 17 15 16 12 15 12 18 15 13 15 12 10 10 20 25 29 31 32 32 31 31 32 32 32 33 32 33 33 33 33 33 34 35 36 37 37 37 38 39 39 40 40 41 42 41 41 41 42 43 46 49 50 50 50 50 49 49 48 48 48 47 47 47 46 46 46 46 46 44 42 41 40 41
19 17 13 14 13 12 14 16 15 17 13 13 14 15 16 16 16 19 19 22 19 17 13 8 15 18 24 30 29 30 30 30 31 31 31 32 31 33 32 32 32 33 33 34 34 35 35 37 38 38 38 38 40 41 41 41 41 41 41 41 42 44 46 48 49 50 49 49 49 49 48 48 47 47 46 46 46 46 46 45 44 44 42 41 41 41
21 18 16 19 11 10 15 17 19 13 9 12 18 20 18 16 17 15 14 18 21 19 18 18 20 23 26 29 28 28 29 29 30 31 33 32 31 31 32 32 33 33 34 34 34 34 35 37 38 38 38 38 40 41 41 41 41 41 42 42 43 44 46 48 49 49 49 49 49 49 48 47 47 46 46 46 46 46 45 44 43 43 42 41 40 39
18 19 17 18 11 11 14 13 9 9 11 18 21 24 24 21 19 17 19 21 24 26 27 27 27 27 30 30 30 30 31 32 33 33 33 34 33 31 31 32 33 33 33 33 34 34 35 36 37 38 38 39 40 40 40 39 39 39 40 42 43 44 45 47 48 49 49 49 49 49 48 47 46 46 46 46 45 45 44 43 41 41 41 40 38 37
16 17 14 13 11 10 9 8 4 8 14 20 21 24 26 24 23 22 20 22 24 26 27 27 29 29 30 30 31 31 32 33 33 33 33 33 35 33 31 31 31 32 33 33 33 34 35 36 37 38 39 40 40 39 39 39 39 39 40 43 43 44 45 47 48 48 47 47 47 47 46 45 44 44 43 45 44 43 42 41 40 40 39 38 37 37
20 20 16 14 15 7 5 7 11 15 15 16 15 21 25 20 19 15 12 16 23 27 28 27 28 28 29 29 31 31 31 30 26 24 27 33 34 35 33 31 32 33 33 34 34 35 35 37 38 39 40 39 39 39 39 39 40 41 42 43 44 45 45 46 47 47 47 47 46 46 45 45 43 43 43 42 42 41 40 40 39 38 38 37 36 36
20 18 18 15 12 14 11 6 4 5 6 8 19 24 29 29 28 25 16 18 25 26 28 29 27 27 28 28 28 29 29 21 19 20 23 28 32 33 34 34 33 34 34 34 35 35 36 37 39 39 40 39 39 40 40 41 41 42 42 43 44 44 45 46 47 47 47 46 46 46 45 44 44 44 44 44 42 41 40 40 38 37 37 36 36 35
21 21 18 18 13 11 10 8 5 3 4 10 20 27 29 30 29 23 18 14 22 25 27 28 26 26 26 27 27 27 25 20 18 20 23 25 25 28 30 32 33 34 35 35 35 35 36 37 38 39 40 39 39 40 40 41 42 42 42 43 43 44 44 45 47 47 47 46 45 45 44 45 45 44 44 43 42 41 40 38 37 37 36 36 35 35
18 16 16 14 12 12 9 9 10 8 7 25 27 28 28 31 28 22 12 9 21 23 25 27 27 26 27 28 27 27 24 19 19 19 24 26 27 29 32 33 34 35 36 36 35 36 37 38 39 38 38 38 38 39 40 41 42 42 43 43 43 43 44 45 46 47 46 46 45 45 45 45 44 43 42 40 39 38 37 37 36 36 35 35 34 34
15 16 16 12 11 14 17 10 11 14 24 29 30 29 29 32 27 17 13 17 22 25 25 26 26 27 27 27 28 24 27 25 23 24 28 31 33 34 35 35 36 36 36 36 36 38 37 36 37 37 38 38 39 40 41 41 41 42 42 43 43 43 44 45 46 46 45 45 44 44 43 44 42 41 41 39 36 36 37 36 36 35 34 34 33 31
12 11 15 13 12 13 10 13 16 13 22 30 31 31 32 19 15 15 24 27 24 23 24 25 25 28 28 29 28 29 28 29 32 33 33 34 34 35 36 36 35 35 35 36 37 37 36 36 36 36 37 38 39 41 41 41 41 41 42 43 43 44 45 45 46 46 44 43 42 42 42 42 42 41 39 37 36 35 35 35 35 34 34 33 31 31
12 9 8 9 11 11 8 10 8 8 24 27 29 20 26 16 19 21 21 23 25 25 25 26 29 29 28 28 29 30 31 32 32 32 32 33 34 34 34 34 34 35 35 35 35 36 36 35 35 36 37 39 40 41 41 41 41 42 42 43 43 44 44 44 45 44 43 42 42 42 41 41 40 39 37 37 37 35 33 34 34 32 32 31 30 29
17 10 9 10 16 7 6 6 10 19 19 30 22 14 21 22 20 22 24 23 26 27 27 27 28 29 30 29 30 30 30 31 31 31 31 31 32 33 34 34 34 35 35 35 35 35 36 35 36 37 39 40 40 41 42 42 42 42 43 43 43 44 43 44 44 43 42 42 42 42 41 41 40 39 39 38 36 33 32 33 33 33 32 31 31 29
21 14 16 12 17 10 9 11 19 24 24 24 30 26 23 23 26 27 27 26 26 28 30 28 30 31 31 31 31 31 31 31 31 31 32 32 33 34 34 34 35 35 35 35 35 36 36 36 37 38 39 40 41 42 43 44 44 43 43 43 43 42 43 43 42 42 41 42 42 41 41 41 40 40 38 37 35 31 32 32 33 32 30 31 30 30
19 20 22 19 20 21 21 20 21 19 21 21 26 28 24 22 23 31 29 28 29 30 31 30 31 32 32 31 31 31 31 31 32 32 32 33 34 34 35 35 35 34 35 35 36 36 36 37 38 39 40 41 42 43 44 44 44 43 43 42 41 43 42 41 41 41 40 41 41 41 40 38 38 36 35 34 32 31 32 33 33 32 30 30 30 29
19 20 16 13 18 14 11 16 17 17 18 18 18 19 21 25 27 31 29 28 26 27 29 32 32 32 32 32 32 31 31 31 32 32 34 34 35 35 35 35 34 35 35 35 36 37 38 38 39 40 41 42 43 43 44 45 45 45 42 39 41 41 41 40 40 40 40 40 40 39 38 35 33 31 32 32 32 33 34 33 32 32 31 30 28 27
17 21 18 19 18 14 13 16 18 18 19 20 19 19 20 24 26 29 30 28 28 29 29 29 30 31 31 31 31 31 31 32 32 32 33 33 34 34 34 34 34 35 36 37 37 38 38 39 39 40 42 43 44 44 44 45 45 43 42 41 41 40 40 40 39 39 39 39 38 37 34 30 31 31 31 31 30 30 31 31 32 31 31 30 28 27
20 23 17 18 18 19 20 20 20 19 18 18 19 24 24 25 25 25 27 29 29 29 29 30 31 30 30 29 30 30 31 31 32 32 33 33 33 34 34 35 35 36 37 37 37 38 38 39 40 42 43 44 44 44 44 45 44 44 43 41 38 38 38 39 37 37 36 36 38 37 30 30 30 29 29 29 29 29 30 30 30 30 29 28 30 30
22 21 21 20 18 16 16 17 18 15 16 17 18 20 20 21 24 26 27 27 27 27 27 27 27 29 31 31 31 32 31 31 32 32 32 33 33 34 34 35 36 36 37 37 38 39 40 41 42 43 43 44 44 44 44 43 43 43 42 39 38 38 38 38 38 37 37 37 37 30 29 30 30 29 28 28 28 27 29 29 32 31 29 26 32 33
21 21 20 16 13 16 18 19 20 19 18 18 18 20 22 23 26 26 26 26 26 27 27 27 28 29 30 31 31 31 31 31 32 32 32 33 34 35 36 36 36 36 37 38 39 40 41 42 42 43 43 43 43 44 44 44 43 43 43 42 40 39 38 38 39 39 38 37 33 30 30 30 28 27 26 27 28 29 27 27 29 32 32 32 32 32